Location: Guayaquil
(2.1667°S, 79.9000°W)
Time: 20:56:33
(UTC-05:00)

ISS - Visible Passes

Search period start: 22 April 2018 00:00
Search period end: 02 May 2018 00:00
Orbit: 403 x 406 km, 51.6° (Epoch: 23 April)

Date Brightness Start Highest point End Pass type
(mag) Time Alt. Az. Time Alt. Az. Time Alt. Az.
22 Apr -3.4 05:44:34 10° SSW 05:47:47 61° SE 05:50:59 10° NE visible
22 Apr -0.6 18:58:05 10° WSW 18:58:55 11° SW 18:59:44 10° SW visible
23 Apr -1.5 04:54:08 16° SSE 04:55:38 21° SE 04:58:11 10° ENE visible
24 Apr -2.7 05:37:40 15° WSW 05:39:43 28° NW 05:42:34 10° N visible
25 Apr -3.0 04:48:25 46° NNE 04:48:25 46° NNE 04:50:48 10° NE visible
